This demonstration page uses our WeatherBlox Daily Observations layout. Learn more.

Left ArrowRight Arrow

44.8408, -93.29828

Hourly Observations for December 11, 2019

Temp ( °F °C ) Dew Point ( °F °C ) Humidity (%) Winds ( mph kmh ) Pressure ( in mb ) Visibility ( mi km ) Precip ( " mm )
12:53 am 00:53 Partly Cloudy -4 -20 -9 -22.8 79 79 Calm 30.30 1026 10 16 0.00 0.00
1:53 am 01:53 Partly Cloudy 0 -17.8 -6 -21.1 76 76 W 7 11 30.31 1026 10 16 0.00 0.00
2:53 am 02:53 Clear 0 -17.8 -7 -21.7 72 72 NW 8 13 30.33 1027 10 16 0.00 0.00
3:53 am 03:53 Clear 0 -17.8 -8 -22.2 69 69 NW 10 17 30.36 1028 10 16 0.00 0.00
4:53 am 04:53 Clear -2 -18.9 -9 -22.8 72 72 NW 9 15 30.38 1029 10 16 0.00 0.00
5:53 am 05:53 Clear -3 -19.4 -10 -23.3 71 71 NW 9 15 30.42 1030 10 16 0.00 0.00
6:53 am 06:53 Clear -5 -20.6 -11 -23.9 75 75 WNW 7 11 30.45 1031 10 16 0.00 0.00
7:53 am 07:53 Sunny -4 -20 -10 -23.3 75 75 NW 8 13 30.49 1032 10 16 0.00 0.00
8:53 am 08:53 Sunny -3 -19.4 -10 -23.3 71 71 WNW 8 13 30.51 1033 10 16 0.00 0.00
9:53 am 09:53 Sunny -1 -18.3 -10 -23.3 65 65 NNW 7 11 30.53 1034 10 16 0.00 0.00
10:53 am 10:53 Sunny 0 -17.8 -9 -22.8 65 65 Calm 30.52 1034 10 16 0.00 0.00
11:53 am 11:53 Sunny 4 -15.6 -9 -22.8 54 54 Calm 30.52 1034 10 16 0.00 0.00
12:53 pm 12:53 Sunny 6 -14.4 -9 -22.8 49 49 Calm 30.52 1034 10 16 0.00 0.00
1:53 pm 13:53 Sunny 7 -13.9 -8 -22.2 50 50 W 3 6 30.52 1034 10 16 0.00 0.00
2:53 pm 14:53 Mostly Sunny 6 -14.4 -7 -21.7 54 54 S 3 6 30.51 1033 10 16 0.00 0.00
3:53 pm 15:53 Mostly Cloudy 7 -13.9 -8 -22.2 50 50 VRB 6 9 30.51 1033 10 16 0.00 0.00
4:53 pm 16:53 Mostly Cloudy 6 -14.4 -8 -22.2 52 52 WSW 5 7 30.51 1033 10 16 0.00 0.00
5:53 pm 17:53 Cloudy 6 -14.4 -8 -22.2 52 52 S 5 7 30.51 1033 10 16 0.00 0.00
6:53 pm 18:53 Cloudy 7 -13.9 -7 -21.7 52 52 SE 5 7 30.50 1033 10 16 0.00 0.00
7:53 pm 19:53 Cloudy 6 -14.4 -6 -21.1 57 57 SSE 7 11 30.49 1033 10 16 0.00 0.00
8:53 pm 20:53 Cloudy 7 -13.9 -6 -21.1 55 55 SE 7 11 30.46 1032 10 16 0.00 0.00
9:53 pm 21:53 Cloudy 8 -13.3 -4 -20 57 57 ESE 10 17 30.43 1031 10 16 0.00 0.00
10:53 pm 22:53 Cloudy 8 -13.3 -3 -19.4 60 60 ESE 9 15 30.42 1030 10 16 0.00 0.00
11:53 pm 23:53 Cloudy 8 -13.3 -2 -18.9 63 63 ESE 10 17 30.40 1029 10 16 0.00 0.00

Powered by AerisWeather